Weather History for Denver, CO

Change the Weather History Date:

Thursday, September 26, 2013

  Actual Average Record
Temperature  
Mean Temperature 57 °F 59 °F  
Max Temperature 68 °F 74 °F 90 °F (1892)
Min Temperature 45 °F 44 °F 28 °F (1927)
Degree Days  
Heating Degree Days 8 7  
Month to date heating degree days 46 92  
Since 1 July heating degree days 46 108  
Cooling Degree Days 0 1  
Month to date cooling degree days 131 73  
Year to date cooling degree days 997 761  
Growing Degree Days 6 (Base 50)    
Moisture  
Dew Point 44 °F    
Average Humidity 58    
Maximum Humidity 77    
Minimum Humidity 39    
Precipitation  
Precipitation 0.00 in 0.03 in 1.41 in (2012)
Month to date precipitation 5.47 0.83  
Year to date precipitation 16.22 12.19  
Snow  
Snow 0.00 in - - ()
Month to date snowfall 0  
Since 1 July snowfall 0  
Since 1 September snowfall 0  
Snow Depth 0.00 in    
Sea Level Pressure  
Sea Level Pressure 29.59 in    
Wind  
Wind Speed 8 mph (NNE)    
Max Wind Speed 26 mph    
Max Gust Speed 33 mph    
Visibility 10 miles    
Events      
T = Trace of Precipitation, MM = Missing Value Source: NWS Daily Summary

Daily Weather History Graph

Daily Weather History Graph

Search for Another Location

Airport:

Trip Planner

Search our weather history database for the weather conditions in past years. The results will help you decide how hot, cold, wet, or windy it might be!

Date:

Astronomy

Sep. 26, 2013 Rise Set
Actual Time 6:50 AM MDT 6:48 PM MDT
Civil Twilight 6:23 AM MDT 7:15 PM MDT
Nautical Twilight 5:51 AM MDT 7:46 PM MDT
Astronomical Twilight 5:20 AM MDT 8:18 PM MDT
Moon 11:49 PM MDT (9/26) 1:43 PM MDT (9/26)
Length of Visible Light 12h 52m
Length of Day
11h 58m
Waning Gibbous, 54% of the Moon is Illuminated
Sep 26
Waning Gibbous
Sep 26
Last Quarter
Oct 4
New
Oct 11
First Quarter
Oct 18
Full

Hourly Weather History & Observations

Time (MDT) Temp. Windchill Dew Point Humidity Pressure Visibility Wind Dir Wind Speed Gust Speed Precip Events Conditions
12:53 AM 60.1 °F - 36.0 °F 41% 29.37 in 10.0 mi South 15.0 mph - N/A   Clear
1:53 AM 54.0 °F - 39.9 °F 59% 29.43 in 10.0 mi NE 16.1 mph - N/A   Clear
2:53 AM 51.1 °F - 41.0 °F 68% 29.46 in 10.0 mi NE 17.3 mph - N/A   Clear
3:53 AM 48.9 °F - 41.0 °F 74% 29.51 in 10.0 mi ENE 15.0 mph - N/A   Clear
4:53 AM 46.0 °F 43.1 °F 39.9 °F 79% 29.55 in 10.0 mi Variable 5.8 mph - N/A   Clear
5:53 AM 46.9 °F - 39.0 °F 74% 29.59 in 10.0 mi NW 3.5 mph - N/A   Partly Cloudy
6:53 AM 48.0 °F - 39.0 °F 71% 29.64 in 10.0 mi Calm Calm - N/A   Clear
7:53 AM 50.0 °F - 42.1 °F 74% 29.67 in 10.0 mi West 4.6 mph - N/A   Clear
8:53 AM 54.0 °F - 41.0 °F 62% 29.66 in 10.0 mi Calm Calm - N/A   Clear
9:53 AM 55.9 °F - 41.0 °F 57% 29.65 in 10.0 mi NE 8.1 mph - N/A   Clear
10:53 AM 57.9 °F - 42.1 °F 56% 29.65 in 10.0 mi ENE 4.6 mph - N/A   Partly Cloudy
11:53 AM 59.0 °F - 44.1 °F 58% 29.65 in 10.0 mi ENE 9.2 mph - N/A   Partly Cloudy
12:53 PM 62.1 °F - 44.1 °F 52% 29.62 in 10.0 mi NNE 4.6 mph - N/A   Partly Cloudy
1:53 PM 64.9 °F - 46.0 °F 50% 29.61 in 10.0 mi Variable 4.6 mph - N/A   Partly Cloudy
2:53 PM 66.0 °F - 46.0 °F 48% 29.60 in 10.0 mi East 8.1 mph - N/A   Partly Cloudy
3:53 PM 68.0 °F - 46.9 °F 47% 29.58 in 10.0 mi ENE 9.2 mph - N/A   Partly Cloudy
4:53 PM 68.0 °F - 46.9 °F 47% 29.59 in 10.0 mi ENE 12.7 mph - N/A   Partly Cloudy
5:53 PM 66.0 °F - 48.0 °F 52% 29.59 in 10.0 mi ENE 11.5 mph - N/A   Partly Cloudy
6:53 PM 60.1 °F - 48.9 °F 67% 29.61 in 10.0 mi North 9.2 mph - N/A   Partly Cloudy
7:53 PM 61.0 °F - 46.9 °F 60% 29.61 in 10.0 mi NW 11.5 mph - N/A   Partly Cloudy
8:53 PM 59.0 °F - 46.0 °F 62% 29.61 in 10.0 mi NW 12.7 mph - N/A   Partly Cloudy
9:53 PM 57.9 °F - 46.0 °F 65% 29.62 in 10.0 mi WNW 6.9 mph - N/A   Scattered Clouds
10:53 PM 55.9 °F - 46.0 °F 69% 29.62 in 10.0 mi West 8.1 mph - N/A   Clear
11:53 PM 54.0 °F - 46.0 °F 75% 29.62 in 10.0 mi WSW 5.8 mph - N/A   Clear